[Date Prev][Date Next][Thread Prev][Thread Next] - [Date Index][Thread Index][Author Index]
2 Line ISS Keps 4-12
- Subject: [sarex] 2 Line ISS Keps 4-12
- From: "Dave Larsen PhD" <doc@xxxxxxxxxxx>
- Date: Tue, 11 Apr 2006 19:31:10 -0700
ISS
1 25544U 98067A 06101.47615741 .00025609 00000-0 17017-3 0 7127
2 25544 051.6397 170.8567 0009165 099.0453 106.1931 15.75228625422640
----
Via the sarex mailing list at AMSAT.ORG courtesy of AMSAT-NA.
To unsubscribe, send "unsubscribe sarex" to Majordomo@amsat.org
AMSAT Home